Location: Bishop�s Knoyle
(51.0728°N, 2.1714°W)
Time: 09:18:13
(UTC+00:00)

NUDT-PHONESAT - Visible Passes

Search period start: 01 December 2021 00:00
Search period end: 11 December 2021 00:00
Orbit: 474 x 487 km, 97.4° (Epoch: 30 November)

Date Brightness Start Highest point End Pass type
(mag) Time Alt. Az. Time Alt. Az. Time Alt. Az.
01 Dec ? 06:21:00 10° NE 06:23:56 23° E 06:26:50 10° SSE visible
01 Dec ? 17:01:30 10° ESE 17:04:16 21° ENE 17:07:02 10° NNE visible
01 Dec ? 18:34:04 10° SSW 18:37:26 37° W 18:40:50 10° NNW visible
02 Dec ? 05:56:32 10° ENE 05:58:11 13° E 05:59:48 10° ESE visible
02 Dec ? 18:08:14 10° S 18:11:50 74° WSW 18:15:28 10° NNW visible
03 Dec ? 07:02:48 10° NNE 07:06:25 66° ESE 07:09:59 10° S visible
03 Dec ? 17:42:47 10° SSE 17:46:19 56° ENE 17:49:52 10° N visible
03 Dec ? 19:18:06 10° WSW 19:20:02 14° W 19:21:58 10° WNW visible
04 Dec ? 06:37:28 10° NNE 06:40:47 33° E 06:44:05 10° SSE visible
04 Dec ? 17:17:42 10° SE 17:20:53 30° ENE 17:24:04 10° N visible
04 Dec ? 18:51:15 10° SSW 18:54:15 25° W 18:57:18 10° NW visible
05 Dec ? 06:12:27 10° NE 06:15:03 18° E 06:17:37 10° SE visible
05 Dec ? 16:53:03 10° ESE 16:55:30 18° ENE 16:57:58 10° NNE visible
05 Dec ? 18:25:05 10° S 18:28:33 47° W 18:32:04 10° NNW visible
06 Dec ? 17:59:20 10° SSE 18:02:57 87° ENE 18:06:35 10° NNW visible
07 Dec ? 06:53:56 10° NNE 06:57:29 51° E 07:00:59 10° S visible
07 Dec ? 17:33:58 10° SE 17:37:24 44° ENE 17:40:53 10° N visible
07 Dec ? 19:08:34 10° SW 19:11:00 17° W 19:13:27 10° NW visible
08 Dec ? 06:28:39 10° NE 06:31:46 27° E 06:34:51 10° SSE visible
08 Dec ? 17:08:58 10° ESE 17:11:56 24° ENE 17:14:56 10° N visible
08 Dec ? 18:41:58 10° SSW 18:45:12 31° W 18:48:28 10° NNW visible
09 Dec ? 06:03:49 10° NE 06:05:56 15° E 06:08:03 10° SE visible
09 Dec ? 16:44:31 10° E 16:46:33 15° ENE 16:48:36 10° NNE visible
09 Dec ? 18:15:56 10° S 18:19:29 60° W 18:23:05 10° NNW visible
10 Dec ? 07:10:24 10° NNE 07:14:01 81° ESE 07:17:36 10° SSW visible
10 Dec ? 17:50:16 10° SSE 17:53:51 68° ENE 17:57:27 10° N visible
10 Dec ? 19:26:20 10° WSW 19:27:39 12° W 19:28:59 10° WNW visible
